Regional Weather Roundup
Issued by NWS

Home | Current Version | Previous Version | Text Only | Print | Product List | Glossary Off
Versions: 1 2 3 4 5 6 7 8 9 10 11 12 13 14 15 16 17 18 19 20 21 22 23 24 25 26 27

000
ASUS45 KBOU 041607
RWRCO

WEATHER ROUNDUP FOR COLORADO
NATIONAL WEATHER SERVICE DENVER/BOULDER CO
1000 AM MDT WED MAY 04 2016

NOTE: "FAIR" INDICATES FEW OR NO CLOUDS BELOW 12000 FEET WITH NO
SIGNIFICANT WEATHER AND/OR OBSTRUCTIONS TO VISIBILITY.

COZ001>005-013-030-031-041700-
...NORTHWEST COLORADO...

CITY           SKY/WX    TMP DP  RH WIND       PRES   REMARKS
CRAIG          FAIR      59  31  34 NE7       30.30F
HAYDEN         FAIR      55  28  35 E8        30.31F
MEEKER         FAIR      58  29  33 CALM      30.30F
MOUNT WERNER   NOT AVBL
STEAMBOAT SPGS FAIR      53  31  43 CALM      30.32F
WALDEN         FAIR      50  28  43 CALM      30.40F
$$

COZ006>008-011-041700-
...WEST CENTRAL VALLEYS...

CITY           SKY/WX    TMP DP  RH WIND       PRES   REMARKS
GRAND JUNCTION FAIR      63  30  28 SE9       30.26S
MONTROSE       FAIR      62  31  31 N5        30.31F
EAGLE          NOT AVBL
RIFLE          FAIR      59  30  33 VRB3      30.29F
DELTA          NOT AVBL
NUCLA          NOT AVBL
$$

COZ017>023-064>068-041700-
...SOUTHWEST COLORADO...

CITY           SKY/WX    TMP DP  RH WIND       PRES   REMARKS
DURANGO        FAIR      58  33  39 SE7       30.36F
CORTEZ         FAIR      63  35  35 VRB5      30.31F
PAGOSA SPRINGS FAIR      54  26  33 CALM      30.41F
TELLURIDE      FAIR      55  23  29 SE6       30.45F
WOLF CREEK PAS FAIR      37  23  56 S7        30.60R
$$

COZ009-010-012-014-032>034-037-058>063-041700-
...CENTRAL COLORADO...

CITY           SKY/WX    TMP DP  RH WIND       PRES   REMARKS
ASPEN          FAIR      56  25  30 N8        30.36F
BUENA VISTA    FAIR      53  20  27 SE3       30.38F
COPPER MTN     NOT AVBL
BERTHOUD PASS  FAIR      32  25  74 MISG      30.56R
COTTONWOOD PAS FAIR      52  18  25 E6        30.46S
GUNNISON       FAIR      46  25  42 CALM      30.44F
KREMMLING      FAIR      50  25  37 CALM      30.40F
LEADVILLE      FAIR      49  12  22 W3        30.44F
MONARCH PASS   FAIR      36  18  48 W12G18    30.66S
SALIDA         FAIR      51  26  37 N3        30.45F
SUNLIGHT       FAIR      46  23  39 CALM      30.53S
WILKERSON PASS FAIR      45  12  26 NW6       30.54S
$$

COZ069>075-041700-
...SAN LUIS VALLEY/SANGRE DE CRISTO MOUNTAINS...

CITY           SKY/WX    TMP DP  RH WIND       PRES   REMARKS
ALAMOSA        FAIR      52  24  33 CALM      30.40F
LA VETA PASS   FAIR      45  27  49 S9        30.48S
SAGUACHE       FAIR      50  23  34 S5        30.43S
$$

COZ035-036-038>040-041700-
...NORTHERN COLORADO FRONT RANGE...

CITY           SKY/WX    TMP DP  RH WIND       PRES   REMARKS
DENVER INTL AP FAIR      64  30  27 W7        30.26F
DMNS CITY PARK   N/A     64  29  26 S5        30.26S
AURORA         FAIR      62  30  29 S3        30.27F
FRONT RANGE AP SUNNY     63  30  29 CALM      30.27F
ERIE MUNI ARPT FAIR      62  35  36 CALM      30.25F
BOULDER MUN AP FAIR      61  34  36 CALM      30.25F
CENTENNIAL     FAIR      62  33  33 NW3       30.28S
BROOMFIELD     SUNNY     61  32  33 CALM      30.28S
FORT COLLINS   FAIR      61  39  44 S3        30.26S
LONGMONT       FAIR      66  37  34 CALM      30.26F
$$

COZ041-046-047-076>085-087-088-041700-
...PIKES PEAK/PALMER DIVIDE AND SOUTHERN FOOTHILLS...

CITY           SKY/WX    TMP DP  RH WIND       PRES   REMARKS
COLO. SPRINGS  FAIR      62  24  23 S6        30.31S
A. F. ACADEMY  FAIR      61  25  25 S6        30.30F
SCHRIEVER AFB  NOT AVBL
ELLICOTT       FAIR     N/A N/A N/A SW5       30.29S
FALCON         NOT AVBL
FORT CARSON    FAIR      64  30  27 S12       30.27F
LIMON          FAIR      64  35  34 W5        30.27S
MONUMENT HILL  FAIR      59  27  29 S6        30.34S
TRINIDAD       FAIR      63  29  27 W7        30.30S
$$

COZ042>045-048>051-090-091-041700-
...NORTHEAST COLORADO...

CITY           SKY/WX    TMP DP  RH WIND       PRES   REMARKS
GREELEY ARPT   FAIR      63  39  42 CALM      30.25F
AKRON          FAIR      63  41  44 W9        30.24S
BURLINGTON     FAIR      67  38  34 NW8       30.23R
WRAY           NOT AVBL
STERLING       FAIR      61  46  59 SW5       30.21S
HOLYOKE        NOT AVBL
FORT MORGAN    FAIR      62  39  42 SW5       30.24F
$$

COZ086-089-092>099-041700-
...SOUTHEAST COLORADO...

CITY           SKY/WX    TMP DP  RH WIND       PRES   REMARKS
PUEBLO         FAIR      68  30  24 W7        30.25F
LA JUNTA       FAIR      68  36  30 W10       30.23F
LAMAR          FAIR      66  40  38 NW9       30.20F
SPRINGFIELD      N/A     68  38  33 NW12      30.23S
$$




USA.gov is the U.S. government's official web portal to all federal, state and local government web resources and services.